Weather History for Lancaster, SC

Change the Weather History Date:

Friday, February 15, 2013

  Actual Average (KUZA) Record (KUZA)
Temperature  
Mean Temperature 7 °C -  
Max Temperature 17 °C 14 °C 26 °C (1989)
Min Temperature -3 °C 2 °C -7 °C (1960)
Degree Days  
Heating Degree Days 21    
Moisture  
Dew Point 0 °C    
Average Humidity 77    
Maximum Humidity 100    
Minimum Humidity 27    
Precipitation  
Precipitation 0.00 mm - - ()
Sea Level Pressure  
Sea Level Pressure 1017 hPa    
Wind  
Wind Speed 2 km/h (SSW)    
Max Wind Speed 14 km/h    
Max Gust Speed -    
Visibility 14 kilometers    
Events Rain    
Averages and records for this station are not official NWS values.
T = Trace of Precipitation, MM = Missing Value Source: NWS Daily Summary

Daily Weather History Graph

Daily Weather History Graph

Search for Another Location

Airport:

Trip Planner

Search our weather history database for the weather conditions in past years. The results will help you decide how hot, cold, wet, or windy it might be!

Date:

Astronomy

Feb. 15, 2013 Rise Set
Actual Time 7:08 AM EST 6:06 PM EST
Civil Twilight 6:42 AM EST 6:32 PM EST
Nautical Twilight 6:13 AM EST 7:02 PM EST
Astronomical Twilight 5:44 AM EST 7:31 PM EST
Moon 9:59 AM EST (2/15) 11:49 PM EST (2/15)
Length of Visible Light 11h 49m
Length of Day
10h 58m
Waxing Crescent, 30% of the Moon is Illuminated
Feb 15
Waxing Crescent
Feb 17
First Quarter
Feb 25
Full
Mar 4
Last Quarter
Mar 11
New

Hourly Weather History & Observations

Time (EST) Temp. Dew Point Humidity Pressure Visibility Wind Dir Wind Speed Gust Speed Precip Events Conditions
12:15 AM 0.0 °C 0.0 °C 100% 1018.8 hPa 4.8 km Calm Calm - N/A Rain Light Rain
12:35 AM 0.0 °C 0.0 °C 100% 1018.5 hPa 6.4 km Calm Calm - N/A Rain Light Rain
12:55 AM -1.0 °C -1.0 °C 100% 1018.5 hPa 6.4 km Calm Calm - N/A Rain Light Freezing Rain
1:15 AM -1.0 °C -1.0 °C 100% 1018.5 hPa 6.4 km Calm Calm - N/A Rain Light Freezing Rain
1:35 AM -1.0 °C -1.0 °C 100% 1018.5 hPa 4.8 km Calm Calm - N/A Rain Light Freezing Rain
1:55 AM -1.0 °C -1.0 °C 100% 1018.5 hPa 6.4 km Calm Calm - N/A Rain Light Freezing Rain
2:15 AM -1.0 °C -1.0 °C 100% 1018.2 hPa 8.0 km Calm Calm - N/A Rain Light Freezing Rain
2:35 AM -1.0 °C -1.0 °C 100% 1018.2 hPa 8.0 km Calm Calm - N/A Rain Light Freezing Rain
2:55 AM -2.0 °C -2.0 °C 100% 1018.2 hPa 8.0 km Calm Calm - N/A Rain Light Freezing Rain
3:15 AM -2.0 °C -2.0 °C 100% 1018.2 hPa 8.0 km Calm Calm - N/A Rain Light Freezing Rain
3:35 AM -2.0 °C -2.0 °C 100% 1017.8 hPa 11.3 km Calm Calm - N/A Rain Light Freezing Rain
3:55 AM -2.0 °C -2.0 °C 100% 1018.2 hPa 12.9 km Calm Calm - N/A Rain Light Freezing Rain
4:15 AM -2.0 °C -2.0 °C 100% 1018.2 hPa 12.9 km Calm Calm - N/A Rain Light Freezing Rain
4:35 AM -2.0 °C -2.0 °C 100% 1017.8 hPa 14.5 km Calm Calm - N/A Rain Light Freezing Rain
4:55 AM -2.0 °C -2.0 °C 100% 1017.8 hPa 14.5 km Calm Calm - N/A Rain Light Freezing Rain
5:15 AM -2.0 °C -2.0 °C 100% 1018.2 hPa 16.1 km Calm Calm - N/A Rain Light Freezing Rain
5:35 AM -2.0 °C -2.0 °C 100% 1018.2 hPa 12.9 km Calm Calm - N/A Rain Light Freezing Rain
6:15 AM -2.0 °C -2.0 °C 100% 1018.5 hPa 16.1 km Calm Calm - N/A Rain Light Freezing Rain
6:35 AM -2.0 °C -2.0 °C 100% 1018.8 hPa 16.1 km Calm Calm - N/A Rain Light Freezing Rain
6:55 AM -2.0 °C -2.0 °C 100% 1018.8 hPa 16.1 km Calm Calm - N/A   Clear
7:15 AM -3.0 °C -3.0 °C 100% 1018.8 hPa 14.5 km Calm Calm - N/A Rain Light Freezing Rain
7:35 AM -3.0 °C -3.0 °C 100% 1019.2 hPa 14.5 km Calm Calm - N/A Rain Light Freezing Rain
7:55 AM -2.0 °C -2.0 °C 100% 1019.2 hPa 16.1 km Calm Calm - N/A Rain Light Freezing Rain
8:15 AM -2.0 °C -2.0 °C 100% 1019.2 hPa 14.5 km Calm Calm - N/A Rain Light Freezing Rain
8:35 AM -1.0 °C -1.0 °C 100% 1019.2 hPa 11.3 km Calm Calm - N/A Rain Light Freezing Rain
8:55 AM 0.0 °C 0.0 °C 100% 1019.2 hPa 8.0 km Calm Calm - N/A Rain Light Rain
9:15 AM 3.0 °C 3.0 °C 100% 1019.5 hPa 14.5 km Calm Calm - N/A Rain Light Rain
9:35 AM 5.0 °C 5.0 °C 100% 1019.5 hPa 16.1 km Calm Calm - N/A   Clear
9:55 AM 7.0 °C 5.0 °C 87% 1019.5 hPa 16.1 km Calm Calm - N/A   Clear
10:15 AM 8.0 °C 5.0 °C 81% 1019.2 hPa 16.1 km Calm Calm - N/A   Clear
10:35 AM 10.0 °C 5.0 °C 71% 1019.2 hPa 16.1 km Calm Calm - N/A   Clear
10:55 AM 12.0 °C 3.0 °C 54% 1018.8 hPa 16.1 km Calm Calm - N/A   Clear
11:15 AM 13.0 °C 2.0 °C 47% 1018.8 hPa 16.1 km Calm Calm - N/A   Clear
11:35 AM 14.0 °C 1.0 °C 41% 1018.8 hPa 16.1 km SSW 5.6 km/h / 1.5 m/s - N/A   Clear
11:55 AM 15.0 °C 1.0 °C 39% 1018.5 hPa 16.1 km South 5.6 km/h / 1.5 m/s - N/A   Clear
12:15 PM 15.0 °C 0.0 °C 36% 1018.5 hPa 16.1 km SSW 7.4 km/h / 2.1 m/s - N/A   Clear
12:35 PM 15.0 °C -2.0 °C 31% 1018.2 hPa 16.1 km Calm Calm - N/A   Clear
12:55 PM 15.0 °C -2.0 °C 31% 1017.8 hPa 16.1 km SE 7.4 km/h / 2.1 m/s - N/A   Clear
1:15 PM 15.0 °C -2.0 °C 31% 1017.2 hPa 16.1 km South 5.6 km/h / 1.5 m/s - N/A   Clear
1:35 PM 16.0 °C -1.0 °C 31% 1016.8 hPa 16.1 km South 5.6 km/h / 1.5 m/s - N/A   Clear
2:15 PM 16.0 °C -2.0 °C 29% 1016.1 hPa 16.1 km SSE 7.4 km/h / 2.1 m/s - N/A   Clear
2:35 PM 17.0 °C -1.0 °C 30% 1015.8 hPa 16.1 km South 5.6 km/h / 1.5 m/s - N/A   Clear
2:55 PM 16.0 °C -2.0 °C 29% 1015.5 hPa 16.1 km Calm Calm - N/A   Clear
3:15 PM 17.0 °C -1.0 °C 30% 1015.1 hPa 16.1 km West 9.3 km/h / 2.6 m/s - N/A   Clear
3:35 PM 17.0 °C -2.0 °C 27% 1014.8 hPa 16.1 km West 13.0 km/h / 3.6 m/s - N/A   Clear
3:55 PM 17.0 °C -2.0 °C 27% 1014.8 hPa 16.1 km SW 14.8 km/h / 4.1 m/s - N/A   Clear
4:15 PM 16.0 °C -2.0 °C 29% 1014.8 hPa 16.1 km SSW 5.6 km/h / 1.5 m/s - N/A   Clear
4:35 PM 16.0 °C -2.0 °C 29% 1014.8 hPa 16.1 km West 11.1 km/h / 3.1 m/s - N/A   Clear
4:55 PM 16.0 °C -2.0 °C 29% 1014.4 hPa 16.1 km WSW 13.0 km/h / 3.6 m/s - N/A   Clear
5:15 PM 15.0 °C -2.0 °C 31% 1014.4 hPa 16.1 km SW 7.4 km/h / 2.1 m/s - N/A   Clear
5:35 PM 14.0 °C 0.0 °C 38% 1014.1 hPa 16.1 km Calm Calm - N/A   Clear
5:55 PM 13.0 °C 0.0 °C 41% 1014.1 hPa 16.1 km Calm Calm - N/A   Clear
6:15 PM 12.0 °C 1.0 °C 47% 1014.4 hPa 16.1 km Calm Calm - N/A   Clear
6:35 PM 9.0 °C 3.0 °C 66% 1014.4 hPa 16.1 km Calm Calm - N/A   Clear
6:55 PM 8.0 °C 3.0 °C 71% 1014.4 hPa 16.1 km Calm Calm - N/A   Clear
7:15 PM 7.0 °C 4.0 °C 81% 1014.4 hPa 16.1 km Calm Calm - N/A   Clear
7:35 PM 5.0 °C 3.0 °C 87% 1014.8 hPa 16.1 km Calm Calm - N/A   Clear
7:55 PM 5.0 °C 3.0 °C 87% 1014.4 hPa 16.1 km Calm Calm - N/A   Clear
8:15 PM 5.0 °C 3.0 °C 87% 1014.4 hPa 16.1 km Calm Calm - N/A   Clear
8:35 PM 4.0 °C 3.0 °C 93% 1014.4 hPa 16.1 km Calm Calm - N/A   Clear
8:55 PM 4.0 °C 3.0 °C 93% 1014.4 hPa 16.1 km Calm Calm - N/A   Clear
9:15 PM 3.0 °C 3.0 °C 100% 1014.4 hPa 16.1 km Calm Calm - N/A   Clear
9:35 PM 3.0 °C 3.0 °C 100% 1014.4 hPa 16.1 km Calm Calm - N/A   Clear
9:55 PM 3.0 °C 3.0 °C 100% 1014.4 hPa 16.1 km Calm Calm - N/A   Clear
10:15 PM 3.0 °C 3.0 °C 100% 1014.4 hPa 16.1 km Calm Calm - N/A   Clear
10:35 PM 3.0 °C 3.0 °C 100% 1014.4 hPa 16.1 km Calm Calm - N/A   Clear
10:55 PM 2.0 °C 2.0 °C 100% 1014.4 hPa 16.1 km Calm Calm - N/A   Clear
11:15 PM 2.0 °C 2.0 °C 100% 1014.4 hPa 16.1 km Calm Calm - N/A   Clear
11:35 PM 2.0 °C 2.0 °C 100% 1014.4 hPa 16.1 km Calm Calm - N/A   Clear
11:55 PM 2.0 °C 2.0 °C 100% 1014.4 hPa 16.1 km Calm Calm - N/A   Clear